• In Russia
  • List of Countries
  • For 7 days
  • Water Temperature
  • Satellite Maps
  • Weather Map
  • Weather Widgets
  • user-avatar
    Login

    Hourly Weather Lagerka

    Today, 22 April, Sunday

    Time Temperature Precipitation Wind Pressure Humidity
    00:00 +1°C° 0.2 mm 9 mps 733 mmHg 57%
    01:00 +1°C° 0.1 mm 9 mps 732 mmHg 59%
    02:00 +1°C° 0.1 mm 9 mps 731 mmHg 60%
    03:00 +1°C° 0.1 mm 10 mps 730 mmHg 62%
    04:00 +1°C° 0 mm 10 mps 730 mmHg 64%
    05:00 +2°C° 0 mm 10 mps 729 mmHg 65%
    06:00 +2°C° 0 mm 10 mps 728 mmHg 67%
    07:00 +3°C° 0.4 mm 10 mps 728 mmHg 69%
    08:00 +4°C° 0.4 mm 11 mps 727 mmHg 71%
    09:00 +4°C° 0.4 mm 11 mps 727 mmHg 73%
    10:00 +5°C° 1 mm 10 mps 727 mmHg 76%
    11:00 +5°C° 1 mm 10 mps 726 mmHg 79%
    12:00 +6°C° 1 mm 10 mps 726 mmHg 82%
    13:00 +6°C° 0.6 mm 9 mps 726 mmHg 82%
    14:00 +6°C° 0.6 mm 8 mps 726 mmHg 82%
    15:00 +6°C° 0.6 mm 7 mps 726 mmHg 82%
    16:00 +6°C° 0.2 mm 7 mps 727 mmHg 79%
    17:00 +5°C° 0.2 mm 6 mps 727 mmHg 76%
    18:00 +5°C° 0.2 mm 6 mps 728 mmHg 74%
    19:00 +4°C° 0 mm 6 mps 728 mmHg 76%
    20:00 +2°C° 0 mm 6 mps 729 mmHg 77%
    21:00 +1°C° 0 mm 5 mps 730 mmHg 79%
    22:00 +1°C° 0 mm 5 mps 730 mmHg 80%
    23:00 0°C° 0 mm 5 mps 730 mmHg 81%

    Tomorrow, 23 April, Monday

    Time Temperature Precipitation Wind Pressure Humidity
    00:00 0°C° 0 mm 5 mps 731 mmHg 82%
    01:00 -1°C° 0 mm 5 mps 731 mmHg 83%
    02:00 -2°C° 0 mm 5 mps 731 mmHg 84%
    03:00 -2°C° 0 mm 5 mps 732 mmHg 84%
    04:00 -3°C° 0 mm 6 mps 732 mmHg 81%
    05:00 -3°C° 0 mm 6 mps 733 mmHg 77%
    06:00 -3°C° 0 mm 7 mps 733 mmHg 74%
    07:00 -2°C° 0 mm 7 mps 733 mmHg 70%
    08:00 -2°C° 0 mm 7 mps 734 mmHg 67%
    09:00 -2°C° 0 mm 7 mps 734 mmHg 63%
    10:00 -1°C° 0.1 mm 6 mps 734 mmHg 62%
    11:00 -1°C° 0.1 mm 6 mps 735 mmHg 61%
    12:00 +1°C° 0.1 mm 6 mps 735 mmHg 60%
    13:00 +1°C° 0.1 mm 6 mps 736 mmHg 61%
    14:00 +1°C° 0.1 mm 6 mps 736 mmHg 61%
    15:00 +1°C° 0.1 mm 6 mps 736 mmHg 62%
    16:00 0°C° 0.1 mm 5 mps 737 mmHg 64%
    17:00 0°C° 0.1 mm 5 mps 737 mmHg 67%
    18:00 -1°C° 0.1 mm 5 mps 737 mmHg 69%
    19:00 -1°C° 0 mm 4 mps 738 mmHg 74%
    20:00 -2°C° 0 mm 4 mps 738 mmHg 78%
    21:00 -2°C° 0 mm 3 mps 738 mmHg 83%
    22:00 -2°C° 0 mm 3 mps 738 mmHg 84%
    23:00 -4°C° 0 mm 3 mps 738 mmHg 85%

    Day after tomorrow, 24 April, Tuesday

    Time Temperature Precipitation Wind Pressure Humidity
    00:00 -4°C° 0 mm 3 mps 738 mmHg 87%
    01:00 -3°C° 0 mm 4 mps 739 mmHg 86%
    02:00 -3°C° 0 mm 4 mps 739 mmHg 86%
    03:00 -3°C° 0 mm 4 mps 739 mmHg 85%
    04:00 -4°C° 0.1 mm 5 mps 739 mmHg 84%
    05:00 -4°C° 0.1 mm 5 mps 739 mmHg 83%
    06:00 -2°C° 0.1 mm 5 mps 739 mmHg 82%
    07:00 -3°C° 0.1 mm 6 mps 740 mmHg 79%
    08:00 -3°C° 0.1 mm 6 mps 740 mmHg 75%
    09:00 -2°C° 0.1 mm 6 mps 741 mmHg 72%
    10:00 -2°C° 0.1 mm 6 mps 741 mmHg 70%
    11:00 -1°C° 0.1 mm 6 mps 741 mmHg 68%
    12:00 -1°C° 0.1 mm 6 mps 741 mmHg 66%
    13:00 -1°C° 0.1 mm 6 mps 742 mmHg 66%
    14:00 -1°C° 0.1 mm 6 mps 742 mmHg 66%
    15:00 -1°C° 0.1 mm 6 mps 742 mmHg 66%
    16:00 -1°C° 0.1 mm 6 mps 743 mmHg 68%
    17:00 -1°C° 0.1 mm 5 mps 743 mmHg 71%
    18:00 -1°C° 0.1 mm 5 mps 743 mmHg 74%
    19:00 -2°C° 0 mm 5 mps 744 mmHg 77%
    20:00 -2°C° 0 mm 4 mps 744 mmHg 80%
    21:00 -3°C° 0 mm 4 mps 744 mmHg 84%
    22:00 -3°C° 0 mm 4 mps 745 mmHg 84%
    23:00 -3°C° 0 mm 4 mps 745 mmHg 85%

    25 April, Wednesday

    Time Temperature Precipitation Wind Pressure Humidity
    00:00 -3°C° 0 mm 4 mps 745 mmHg 86%
    01:00 -4°C° 0 mm 4 mps 745 mmHg 87%
    02:00 -4°C° 0 mm 3 mps 745 mmHg 88%
    03:00 -4°C° 0 mm 3 mps 746 mmHg 89%
    04:00 -4°C° 0 mm 3 mps 746 mmHg 85%
    05:00 -3°C° 0 mm 4 mps 746 mmHg 81%
    06:00 -3°C° 0 mm 4 mps 747 mmHg 78%
    07:00 -2°C° 0 mm 4 mps 747 mmHg 70%
    08:00 0°C° 0 mm 4 mps 747 mmHg 61%
    09:00 +1°C° 0 mm 4 mps 748 mmHg 53%
    10:00 +1°C° 0 mm 4 mps 748 mmHg 52%
    11:00 +3°C° 0 mm 4 mps 748 mmHg 50%
    12:00 +3°C° 0 mm 3 mps 748 mmHg 49%
    13:00 +4°C° 0 mm 3 mps 748 mmHg 48%
    14:00 +4°C° 0 mm 3 mps 748 mmHg 47%
    15:00 +5°C° 0 mm 3 mps 748 mmHg 46%
    16:00 +5°C° 0 mm 2 mps 748 mmHg 49%
    17:00 +5°C° 0 mm 2 mps 748 mmHg 53%
    18:00 +5°C° 0 mm 1 mps 748 mmHg 57%
    19:00 +4°C° 0 mm 1 mps 748 mmHg 60%
    20:00 +2°C° 0 mm 2 mps 748 mmHg 63%
    21:00 +1°C° 0 mm 2 mps 748 mmHg 66%
    22:00 +1°C° 0 mm 2 mps 748 mmHg 67%
    23:00 0°C° 0 mm 3 mps 748 mmHg 68%

    26 April, Thursday

    Time Temperature Precipitation Wind Pressure Humidity
    00:00 0°C° 0 mm 3 mps 748 mmHg 68%
    01:00 0°C° 0 mm 3 mps 747 mmHg 69%
    02:00 0°C° 0 mm 3 mps 747 mmHg 69%
    03:00 0°C° 0 mm 3 mps 747 mmHg 69%
    04:00 0°C° 0 mm 4 mps 747 mmHg 67%
    05:00 0°C° 0 mm 4 mps 747 mmHg 66%
    06:00 +1°C° 0 mm 4 mps 747 mmHg 64%
    07:00 +3°C° 0 mm 5 mps 747 mmHg 61%
    08:00 +6°C° 0 mm 5 mps 747 mmHg 57%
    09:00 +8°C° 0 mm 6 mps 747 mmHg 54%
    10:00 +9°C° 0 mm 6 mps 747 mmHg 51%
    11:00 +10°C° 0 mm 6 mps 747 mmHg 49%
    12:00 +11°C° 0 mm 6 mps 746 mmHg 46%
    13:00 +11°C° 0 mm 6 mps 746 mmHg 46%
    14:00 +11°C° 0 mm 6 mps 746 mmHg 46%
    15:00 +11°C° 0 mm 6 mps 746 mmHg 45%
    16:00 +12°C° 0 mm 5 mps 746 mmHg 50%
    17:00 +10°C° 0 mm 5 mps 746 mmHg 54%
    18:00 +10°C° 0 mm 4 mps 745 mmHg 58%
    19:00 +8°C° 0 mm 4 mps 745 mmHg 63%
    20:00 +7°C° 0 mm 4 mps 745 mmHg 68%
    21:00 +6°C° 0 mm 4 mps 745 mmHg 72%
    22:00 +6°C° 0 mm 4 mps 745 mmHg 74%
    23:00 +6°C° 0 mm 4 mps 745 mmHg 76%

    27 April, Friday

    Time Temperature Precipitation Wind Pressure Humidity
    00:00 +5°C° 0 mm 5 mps 744 mmHg 77%
    01:00 +5°C° 0.1 mm 5 mps 744 mmHg 79%
    02:00 +4°C° 0.1 mm 6 mps 743 mmHg 81%
    03:00 +4°C° 0.1 mm 6 mps 743 mmHg 83%
    04:00 +3°C° 0.9 mm 6 mps 743 mmHg 86%
    05:00 +3°C° 0.9 mm 6 mps 742 mmHg 88%
    06:00 +3°C° 0.9 mm 6 mps 742 mmHg 90%
    07:00 +4°C° 0.2 mm 6 mps 742 mmHg 89%
    08:00 +6°C° 0.2 mm 5 mps 742 mmHg 88%
    09:00 +6°C° 0.2 mm 5 mps 742 mmHg 88%
    10:00 +8°C° 0 mm 5 mps 742 mmHg 84%
    11:00 +9°C° 0 mm 5 mps 743 mmHg 81%
    12:00 +10°C° 0 mm 5 mps 743 mmHg 78%
    13:00 +11°C° 0.1 mm 6 mps 743 mmHg 71%
    14:00 +13°C° 0.1 mm 6 mps 744 mmHg 65%
    15:00 +14°C° 0.1 mm 7 mps 744 mmHg 58%
    16:00 +13°C° 0.1 mm 6 mps 744 mmHg 61%
    17:00 +12°C° 0.1 mm 5 mps 745 mmHg 65%
    18:00 +10°C° 0.1 mm 5 mps 746 mmHg 68%
    19:00 +10°C° 0 mm 4 mps 746 mmHg 73%
    20:00 +7°C° 0 mm 4 mps 747 mmHg 78%
    21:00 +6°C° 0 mm 4 mps 748 mmHg 82%
    22:00 +5°C° 0 mm 3 mps 748 mmHg 85%
    23:00 +5°C° 0 mm 3 mps 748 mmHg 88%
    Show more